This is the latest recevied weather packets stored in our database for station/object K7NDG. If no packets are shown the sender has not sent any weather packets the latest 10 day(s).
| Time | Temp. | Humidity | Pressure | Rain* | Wind** | Luminosity | Snow |
|---|---|---|---|---|---|---|---|
| 1777999180 | 14.44° C | 80% | 1016.7 hPa | 0 mm | - | 55 W/m² | - |
| 1777998879 | 14.44° C | 79% | 1017 hPa | 0 mm | - | 49 W/m² | - |
| 1777998578 | 14.44° C | 80% | 1016.8 hPa | 0 mm | - | 51 W/m² | - |
| 1777998273 | 14.44° C | 80% | 1016.5 hPa | 0 mm | - | 56 W/m² | - |
| 1777997970 | 13.89° C | 80% | 1016.5 hPa | 0 mm | - | 60 W/m² | - |
| 1777997667 | 13.89° C | 80% | 1016.6 hPa | 0 mm | - | 67 W/m² | - |
| 1777997364 | 13.89° C | 81% | 1016.6 hPa | 0 mm | - | 83 W/m² | - |
| 1777997062 | 13.89° C | 81% | 1016.6 hPa | 0 mm | - | 88 W/m² | - |
| 1777996759 | 13.89° C | 80% | 1016.5 hPa | 0 mm | - | 79 W/m² | - |
| 1777995544 | 13.33° C | 82% | 1016.4 hPa | 0 mm | - | 62 W/m² | - |
| 1777995241 | 13.33° C | 82% | 1016.6 hPa | 0 mm | - | 59 W/m² | - |
| 1777994938 | 13.33° C | 82% | 1016.4 hPa | 0 mm | - | 55 W/m² | - |
| 1777994630 | 13.33° C | 82% | 1016.3 hPa | 0 mm | - | 48 W/m² | - |
| 1777994329 | 13.33° C | 83% | 1016.3 hPa | 0 mm | - | 45 W/m² | - |
| 1777994027 | 13.33° C | 83% | 1016.3 hPa | 0 mm | - | 42 W/m² | - |
| 1777993723 | 13.33° C | 83% | 1016.3 hPa | 0 mm | - | 40 W/m² | - |
| 1777993421 | 13.33° C | 83% | 1016.2 hPa | 0 mm | - | 38 W/m² | - |
| 1777992510 | 12.78° C | 83% | 1015.9 hPa | 0 mm | - | 32 W/m² | - |
| 1777991905 | 12.78° C | 83% | 1015.9 hPa | 0 mm | - | 31 W/m² | - |
| 1777991603 | 12.78° C | 83% | 1015.7 hPa | 0 mm | - | 27 W/m² | - |
| 1777991300 | 12.78° C | 83% | 1016 hPa | 0 mm | - | 27 W/m² | - |
| 1777990998 | 12.78° C | 83% | 1015.7 hPa | 0 mm | - | 26 W/m² | - |
| 1777990695 | 12.78° C | 83% | 1016 hPa | 0 mm | - | 22 W/m² | - |
| 1777989178 | 12.78° C | 83% | 1015.8 hPa | 0 mm | - | 12 W/m² | - |
| 1777988874 | 12.78° C | 83% | 1015.7 hPa | 0 mm | - | 10 W/m² | - |
* Rain latest hour (hover to see other rain measurements)
** Current wind speed in m/s (hover to see current wind gust speed)